小惑星A/2018 W3

A/2018 W3

English version
Home page
Updated on August 27, 2022

---------------------------------------------------------------------

・ プロフィール

発見日 2018年11月29日
発見光度 21.2等
発見者 Cerro Tololo-DECam

・ 軌道要素

Epoch 2022 Aug. 9.0 TT = JDT 2459800.5                                          
T 2021 Apr. 13.03598 TT                                 Rudenko                 
q   4.2906030            (2000.0)            P               Q                  
z  +0.0014662      Peri.  313.96516     -0.04373232     -0.39480798             
 +/-0.0000028      Node   251.66770     -0.38089806     -0.84262698             
e   0.9937090      Incl.  104.80784     -0.92358224     +0.36620545             
H   10.5                                                                        
From 3649 observations 2018 Feb. 7-2021 June 11, mean residual 0".2.            

・ 光度変化

        H = 10.5  G = 0.15

---------------------------------------------------------------------

軌道要素はM.P.E.C. 2022-Q17に掲載されたものです。
光度グラフはComet for Windowsで作成したものです。

---------------------------------------------------------------------

Copyright(C) Seiichi Yoshida (comet@aerith.net). All rights reserved.